Presidio, TX

6:22 AM CST on February 23, 2017 (GMT -0600)
Presidio Lely Intl, Presidio,

Weather History for KPRS - April, 2014

Change the Weather History Date:

Thursday, April 17, 2014

  Actual Average (KMRF) Record (KMRF)
Temperature  
Mean Temperature 71 °F -  
Max Temperature 88 °F 73 °F 87 °F (2011)
Min Temperature 54 °F 43 °F 21 °F (2009)
Cooling Degree Days 6    
Growing Degree Days 21 (Base 50)    
Moisture  
Dew Point 20 °F    
Average Humidity 14    
Maximum Humidity 27    
Minimum Humidity 6    
Precipitation  
Precipitation 0.00 in - - ()
Sea Level Pressure  
Sea Level Pressure 29.93 in    
Wind  
Wind Speed 7 mph (NNE)    
Max Wind Speed 21 mph    
Max Gust Speed 26 mph    
Visibility 10 miles    
Events      
Averages and records for this station are not official NWS values.
T = Trace of Precipitation, MM = Missing Value Source: NWS Daily Summary

Daily Weather History Graph

Daily Weather History Graph

Search for Another Location

Airport or City:

Trip Planner

Search our weather history database for the weather conditions in past years. The results will help you decide how hot, cold, wet, or windy it might be!

Date:

Astronomy

Apr. 17, 2014 Rise Set
Actual Time 7:28 AM CDT 8:25 PM CDT
Civil Twilight 7:04 AM CDT 8:50 PM CDT
Nautical Twilight 6:35 AM CDT 9:19 PM CDT
Astronomical Twilight 6:05 AM CDT 9:49 PM CDT
Moon 11:04 PM CDT (4/17) 9:10 AM CDT (4/17)
Length of Visible Light 13h 45m
Length of Day
12h 56m
Waning Gibbous, 93% of the Moon is Illuminated
Apr 17
Waning Gibbous
Apr 22
Last Quarter
Apr 29
New
May 6
First Quarter
May 14
Full

Hourly Weather History & Observations

Time (CDT) Temp. Dew Point Humidity Pressure Visibility Wind Dir Wind Speed Gust Speed Precip Events Conditions
12:15 AM 67.5 °F 15.8 °F 14% 29.78 in 10.0 mi North 6.9 mph - N/A   Clear
12:35 AM 67.1 °F 16.7 °F 14% 29.79 in 10.0 mi North 8.1 mph - N/A   Clear
12:55 AM 67.3 °F 17.4 °F 15% 29.79 in 10.0 mi North 9.2 mph - N/A   Clear
1:15 AM 67.3 °F 17.6 °F 15% 29.79 in 10.0 mi North 9.2 mph - N/A   Clear
1:35 AM 66.4 °F 18.1 °F 16% 29.80 in 10.0 mi North 10.4 mph - N/A   Clear
1:55 AM 67.3 °F 19.4 °F 16% 29.81 in 10.0 mi North 11.5 mph - N/A   Clear
2:15 AM 66.2 °F 19.4 °F 17% 29.81 in 10.0 mi North 10.4 mph - N/A   Clear
2:35 AM 66.2 °F 19.8 °F 17% 29.83 in 10.0 mi NNW 9.2 mph - N/A   Clear
2:50 AM 65.1 °F 19.2 °F 17% 29.83 in 10.0 mi NNW 9.2 mph - N/A   Clear
3:15 AM 64.4 °F 19.6 °F 18% 29.83 in 10.0 mi North 6.9 mph - N/A   Clear
3:35 AM 63.3 °F 19.2 °F 18% 29.83 in 10.0 mi Calm Calm - N/A   Clear
3:55 AM 63.0 °F 19.4 °F 19% 29.84 in 10.0 mi North 5.8 mph - N/A   Clear
4:15 AM 60.6 °F 19.2 °F 20% 29.84 in 10.0 mi North 3.5 mph - N/A   Clear
4:35 AM 60.4 °F 19.2 °F 20% 29.84 in 10.0 mi ESE 3.5 mph - N/A   Clear
4:55 AM 57.6 °F 18.7 °F 22% 29.85 in 10.0 mi Calm Calm - N/A   Clear
5:15 AM 59.2 °F 20.1 °F 22% 29.85 in 10.0 mi NNW 4.6 mph - N/A   Clear
5:35 AM 57.0 °F 19.4 °F 23% 29.85 in 10.0 mi Calm Calm - N/A   Clear
5:55 AM 56.1 °F 18.7 °F 23% 29.85 in 10.0 mi Calm Calm - N/A   Clear
6:15 AM 54.7 °F 17.1 °F 23% 29.86 in 10.0 mi Calm Calm - N/A   Clear
6:35 AM 55.6 °F 17.8 °F 23% 29.88 in 10.0 mi SSW 3.5 mph - N/A   Clear
6:55 AM 54.0 °F 18.1 °F 25% 29.88 in 10.0 mi Calm Calm - N/A   Clear
7:15 AM 55.0 °F 21.2 °F 27% 29.89 in 10.0 mi ENE 5.8 mph - N/A   Clear
7:35 AM 54.3 °F 20.7 °F 27% 29.91 in 10.0 mi Calm Calm - N/A   Clear
7:55 AM 55.0 °F 17.2 °F 23% 29.92 in 10.0 mi Calm Calm - N/A   Clear
8:15 AM 56.1 °F 17.1 °F 22% 29.92 in 10.0 mi NW 4.6 mph - N/A   Clear
8:35 AM 59.9 °F 17.4 °F 19% 29.94 in 10.0 mi Calm Calm - N/A   Clear
8:55 AM 62.8 °F 18.5 °F 18% 29.95 in 10.0 mi ENE 3.5 mph - N/A   Clear
9:15 AM 66.7 °F 21.6 °F 18% 29.96 in 10.0 mi Calm Calm - N/A   Clear
9:35 AM 68.5 °F 22.5 °F 18% 29.96 in 10.0 mi SE 3.5 mph - N/A   Clear
10:15 AM 71.1 °F 22.5 °F 16% 29.98 in 10.0 mi SE 3.5 mph - N/A   Clear
10:35 AM 72.9 °F 20.3 °F 14% 29.99 in 10.0 mi Calm Calm - N/A   Clear
10:55 AM 74.3 °F 18.9 °F 12% 29.99 in 10.0 mi Calm Calm - N/A   Clear
11:15 AM 76.3 °F 18.3 °F 11% 30.00 in 10.0 mi West 6.9 mph - N/A   Clear
11:35 AM 80.2 °F 16.3 °F 9% 29.99 in 10.0 mi West 15.0 mph 20.7 mph N/A   Clear
11:55 AM 81.7 °F 14.7 °F 8% 29.99 in 10.0 mi West 11.5 mph 23.0 mph N/A   Clear
12:15 PM 81.7 °F 14.0 °F 8% 29.99 in 10.0 mi NNW 8.1 mph - N/A   Clear
12:35 PM 81.5 °F 12.6 °F 7% 29.99 in 10.0 mi NNW 3.5 mph - N/A   Clear
12:55 PM 84.7 °F 11.5 °F 6% 29.99 in 10.0 mi West 4.6 mph - N/A   Clear
1:15 PM 84.6 °F 11.1 °F 6% 29.98 in 10.0 mi NNE 6.9 mph 18.4 mph N/A   Clear
1:35 PM 85.1 °F 10.0 °F 6% 29.98 in 10.0 mi NNW 4.6 mph - N/A   Clear
1:55 PM 86.4 °F 11.7 °F 6% 29.97 in 10.0 mi NW 4.6 mph - N/A   Clear
2:15 PM 85.3 °F 12.9 °F 7% 29.97 in 10.0 mi Calm Calm - N/A   Clear
2:35 PM 87.8 °F 15.1 °F 7% 29.97 in 10.0 mi NW 4.6 mph 16.1 mph N/A   Clear
2:55 PM 87.6 °F 14.2 °F 7% 29.97 in 10.0 mi NW 9.2 mph - N/A   Clear
3:15 PM 87.6 °F 18.0 °F 8% 29.96 in 10.0 mi ENE 4.6 mph - N/A   Clear
3:35 PM 86.7 °F 17.8 °F 8% 29.96 in 10.0 mi SSE 4.6 mph 16.1 mph N/A   Clear
3:55 PM 88.5 °F 17.2 °F 7% 29.95 in 10.0 mi North 6.9 mph 17.3 mph N/A   Clear
4:15 PM 87.4 °F 16.7 °F 7% 29.95 in 10.0 mi North 6.9 mph - N/A   Clear
4:35 PM 87.1 °F 16.3 °F 7% 29.94 in 10.0 mi NW 4.6 mph - N/A   Clear
4:55 PM 88.0 °F 16.7 °F 7% 29.94 in 10.0 mi Calm Calm - N/A   Clear
5:15 PM 88.2 °F 17.2 °F 7% 29.93 in 10.0 mi NNW 6.9 mph - N/A   Clear
5:35 PM 87.1 °F 22.1 °F 9% 29.94 in 10.0 mi NNE 11.5 mph 20.7 mph N/A   Clear
5:55 PM 87.8 °F 22.8 °F 9% 29.93 in 10.0 mi NE 11.5 mph 20.7 mph N/A   Clear
6:15 PM 88.0 °F 23.4 °F 10% 29.93 in 10.0 mi ENE 15.0 mph 21.9 mph N/A   Clear
6:35 PM 86.5 °F 23.0 °F 10% 29.94 in 10.0 mi East 12.7 mph 17.3 mph N/A   Clear
6:55 PM 86.0 °F 23.0 °F 10% 29.94 in 10.0 mi NE 11.5 mph 19.6 mph N/A   Clear
7:15 PM 84.7 °F 23.4 °F 11% 29.94 in 10.0 mi NE 15.0 mph 21.9 mph N/A   Clear
7:35 PM 83.8 °F 23.5 °F 11% 29.94 in 10.0 mi NE 11.5 mph - N/A   Clear
7:55 PM 82.9 °F 24.6 °F 12% 29.95 in 10.0 mi ENE 20.7 mph 25.3 mph N/A   Clear
8:15 PM 81.1 °F 25.0 °F 13% 29.96 in 10.0 mi ENE 15.0 mph 26.5 mph N/A   Clear
8:35 PM 79.9 °F 25.0 °F 13% 29.96 in 10.0 mi NE 15.0 mph 24.2 mph N/A   Clear
8:55 PM 79.0 °F 25.5 °F 14% 29.98 in 10.0 mi NE 17.3 mph 25.3 mph N/A   Clear
9:15 PM 78.1 °F 25.7 °F 14% 29.99 in 10.0 mi NE 13.8 mph 23.0 mph N/A   Clear
9:35 PM 77.5 °F 26.6 °F 15% 30.00 in 10.0 mi NE 13.8 mph 23.0 mph N/A   Clear
9:55 PM 76.5 °F 27.0 °F 16% 30.02 in 10.0 mi NE 12.7 mph - N/A   Clear
10:15 PM 76.1 °F 27.9 °F 17% 30.02 in 10.0 mi NNE 15.0 mph 25.3 mph N/A   Clear
10:35 PM 75.4 °F 27.9 °F 17% 30.04 in 10.0 mi NNE 12.7 mph 19.6 mph N/A   Clear
10:55 PM 74.7 °F 27.7 °F 18% 30.05 in 10.0 mi NNE 15.0 mph 19.6 mph N/A   Clear
11:15 PM 74.1 °F 27.9 °F 18% 30.05 in 10.0 mi NNE 13.8 mph 21.9 mph N/A   Clear
11:35 PM 72.3 °F 27.5 °F 19% 30.06 in 10.0 mi North 9.2 mph - N/A   Clear
11:55 PM 72.0 °F 27.9 °F 19% 30.06 in 10.0 mi North 10.4 mph 17.3 mph N/A   Clear